Location: Helsinki
(60.1699°N, 24.9384°E)
Time: 23:14:46
(UTC+02:00)

Altair - Pass Details

Date: 31 October 2020
Orbit: 1502 x 1682 km, 47.2° (Epoch: 25 November)

Event Time Altitude Azimuth Distance (km) Brightness Sun altitude
Rises 10:49:48 0° 276° (W) 4,742 9.8 14.0°
Reaches altitude 10° 10:53:47 10° 262° (W) 3,786 9.5 14.2°
Maximum altitude 11:00:19 21° 218° (SW) 3,047 9.7 14.4°
Drops below altitude 10° 11:07:00 10° 175° (S) 3,875 12.0 14.6°
Sets 11:11:10 0° 161° (SSE) 4,884 12.0 14.8°
